Location: *
(37.5724°S, 58.0067°E)
Time: 09:21:38
(UTC+00:00)

Cosmos 1726 - Pass Details

Date: 26 January 2021
Orbit: 480 x 499 km, 82.5° (Epoch: 27 February)

Event Time Altitude Azimuth Distance (km) Brightness Sun altitude
Rises 22:37:11 0° 167° (SSE) 2,593 6.8 -25.4°
Reaches altitude 10° 22:40:03 10° 143° (SE) 1,704 5.9 -25.1°
Maximum altitude 22:42:17 15° 106° (ESE) 1,407 5.0 -24.8°
Drops below altitude 10° 22:44:30 10° 69° (ENE) 1,695 5.0 -24.5°
Enters shadow 22:45:35 - 57° (ENE) 1,990 5.2 -24.4°
